Time,TemperatureF,DewpointF,PressureIn,WindDirection,WindDirectionDegrees,WindSpeedMPH,WindSpeedGustMPH,Humidity,HourlyPrecipIn,Conditions,Clouds,dailyrainin,SoftwareType,DateUTC
2013-06-23 00:03:00,78.0,-99.9,-100.00,WSW,247,0.0,5.0,-999,0.00,,,-99.99,WeatherLink 5.4,2013-06-23 04:03:00,
2013-06-23 00:33:00,76.6,-99.9,-100.00,SW,225,0.0,3.0,-999,0.00,,,-99.99,WeatherLink 5.4,2013-06-23 04:33:00,
2013-06-23 01:03:00,76.6,-99.9,-100.00,SW,225,0.0,3.0,-999,0.00,,,-99.99,WeatherLink 5.4,2013-06-23 05:03:00,
2013-06-23 01:33:00,75.9,-99.9,-100.00,SW,225,0.0,4.0,-999,0.00,,,-99.99,WeatherLink 5.4,2013-06-23 05:33:00,
2013-06-23 02:03:00,75.3,-99.9,-100.00,SW,225,0.0,5.0,-999,0.00,,,-99.99,WeatherLink 5.4,2013-06-23 06:03:00,
2013-06-23 02:33:00,74.6,-99.9,-100.00,SW,225,0.0,4.0,-999,0.00,,,-99.99,WeatherLink 5.4,2013-06-23 06:33:00,
2013-06-23 03:03:00,73.8,-99.9,-100.00,SW,225,0.0,3.0,-999,0.00,,,-99.99,WeatherLink 5.4,2013-06-23 07:03:00,
2013-06-23 03:33:00,73.8,-99.9,-100.00,SW,225,0.0,4.0,-999,0.00,,,-99.99,WeatherLink 5.4,2013-06-23 07:33:00,
2013-06-23 04:03:00,73.2,-99.9,-100.00,North,-999,0.0,2.0,-999,0.00,,,-99.99,WeatherLink 5.4,2013-06-23 08:03:00,
2013-06-23 04:33:00,72.4,-99.9,-100.00,North,-999,0.0,0.0,-999,0.00,,,-99.99,WeatherLink 5.4,2013-06-23 08:33:00,
2013-06-23 05:03:00,71.2,-99.9,-100.00,North,-999,0.0,0.0,-999,0.00,,,-99.99,WeatherLink 5.4,2013-06-23 09:03:00,
2013-06-23 05:33:00,71.1,-99.9,-100.00,North,-999,0.0,0.0,-999,0.00,,,-99.99,WeatherLink 5.4,2013-06-23 09:33:00,
2013-06-23 06:03:00,69.7,-99.9,-100.00,North,-999,0.0,1.0,-999,0.00,,,-99.99,WeatherLink 5.4,2013-06-23 10:03:00,
2013-06-23 06:33:00,69.7,-99.9,-100.00,North,-999,0.0,0.0,-999,0.00,,,-99.99,WeatherLink 5.4,2013-06-23 10:33:00,
2013-06-23 07:03:00,69.3,-99.9,-100.00,North,-999,0.0,0.0,-999,0.00,,,-99.99,WeatherLink 5.4,2013-06-23 11:03:00,
2013-06-23 07:33:00,70.0,-99.9,-100.00,SW,225,0.0,1.0,-999,0.00,,,-99.99,WeatherLink 5.4,2013-06-23 11:33:00,
2013-06-23 08:03:00,71.3,-99.9,-100.00,SW,225,0.0,5.0,-999,0.00,,,-99.99,WeatherLink 5.4,2013-06-23 12:03:00,
2013-06-23 08:33:00,71.9,-99.9,-100.00,SSW,202,0.0,6.0,-999,0.00,,,-99.99,WeatherLink 5.4,2013-06-23 12:33:00,
2013-06-23 09:03:00,73.3,-99.9,-100.00,SW,225,2.0,9.0,-999,0.00,,,-99.99,WeatherLink 5.4,2013-06-23 13:03:00,
2013-06-23 09:33:00,74.5,-99.9,-100.00,WSW,247,2.0,9.0,-999,0.00,,,-99.99,WeatherLink 5.4,2013-06-23 13:33:00,
2013-06-23 10:03:00,76.5,-99.9,-100.00,SW,225,2.0,10.0,-999,0.00,,,-99.99,WeatherLink 5.4,2013-06-23 14:03:00,
2013-06-23 11:03:00,77.9,-99.9,-100.00,SW,225,4.0,11.0,-999,0.00,,,-99.99,WeatherLink 5.4,2013-06-23 15:03:00,
2013-06-23 11:33:00,80.1,-99.9,-100.00,SW,225,5.0,12.0,-999,0.00,,,-99.99,WeatherLink 5.4,2013-06-23 15:33:00,
2013-06-23 12:03:00,81.2,-99.9,-100.00,SW,225,4.0,13.0,-999,0.00,,,-99.99,WeatherLink 5.4,2013-06-23 16:03:00,
2013-06-23 12:33:00,82.1,-99.9,-100.00,SW,225,6.0,16.0,-999,0.00,,,-99.99,WeatherLink 5.4,2013-06-23 16:33:00,
2013-06-23 13:03:00,85.3,-99.9,-100.00,WSW,247,5.0,14.0,-999,0.00,,,-99.99,WeatherLink 5.4,2013-06-23 17:03:00,
2013-06-23 13:33:00,90.9,-99.9,-100.00,WSW,247,5.0,14.0,-999,0.00,,,-99.99,WeatherLink 5.4,2013-06-23 17:33:00,
2013-06-23 14:30:00,91.0,-99.9,-100.00,SW,225,5.0,16.0,-999,0.00,,,-99.99,WeatherLink 5.4,2013-06-23 18:30:00,
2013-06-23 15:00:00,87.3,-99.9,-100.00,SW,225,4.0,11.0,-999,0.00,,,-99.99,WeatherLink 5.4,2013-06-23 19:00:00,
2013-06-23 15:30:00,87.4,-99.9,-100.00,SW,225,5.0,14.0,-999,0.00,,,-99.99,WeatherLink 5.4,2013-06-23 19:30:00,
2013-06-23 16:00:00,86.9,-99.9,-100.00,WSW,247,6.0,15.0,-999,0.00,,,-99.99,WeatherLink 5.4,2013-06-23 20:00:00,
2013-06-23 16:30:00,87.6,-99.9,-100.00,SW,225,4.0,13.0,-999,0.00,,,-99.99,WeatherLink 5.4,2013-06-23 20:30:00,
2013-06-23 17:00:00,88.7,-99.9,-100.00,WSW,247,4.0,15.0,-999,0.00,,,-99.99,WeatherLink 5.4,2013-06-23 21:00:00,
2013-06-23 17:30:00,87.4,-99.9,-100.00,SW,225,4.0,14.0,-999,0.00,,,-99.99,WeatherLink 5.4,2013-06-23 21:30:00,
2013-06-23 18:00:00,88.3,-99.9,-100.00,WSW,247,4.0,13.0,-999,0.00,,,-99.99,WeatherLink 5.4,2013-06-23 22:00:00,
2013-06-23 18:30:00,88.4,-99.9,-100.00,SW,225,4.0,11.0,-999,0.00,,,-99.99,WeatherLink 5.4,2013-06-23 22:30:00,
2013-06-23 19:00:00,86.8,-99.9,-100.00,WSW,247,2.0,9.0,-999,0.00,,,-99.99,WeatherLink 5.4,2013-06-23 23:00:00,
2013-06-23 19:30:00,87.1,-99.9,-100.00,SW,225,4.0,11.0,-999,0.00,,,-99.99,WeatherLink 5.4,2013-06-23 23:30:00,
2013-06-23 20:00:00,86.2,-99.9,-100.00,SW,225,2.0,7.0,-999,0.00,,,-99.99,WeatherLink 5.4,2013-06-24 00:00:00,
2013-06-23 20:30:00,86.9,-99.9,-100.00,SW,225,3.0,8.0,-999,0.00,,,-99.99,WeatherLink 5.4,2013-06-24 00:30:00,
2013-06-23 21:00:00,85.6,-99.9,-100.00,WSW,247,1.0,8.0,-999,0.00,,,-99.99,WeatherLink 5.4,2013-06-24 01:00:00,
2013-06-23 21:30:00,83.5,-99.9,-100.00,WSW,247,3.0,9.0,-999,0.00,,,-99.99,WeatherLink 5.4,2013-06-24 01:30:00,
2013-06-23 22:00:00,81.7,-99.9,-100.00,SW,225,2.0,8.0,-999,0.00,,,-99.99,WeatherLink 5.4,2013-06-24 02:00:00,
2013-06-23 22:30:00,80.4,-99.9,-100.00,SW,225,1.0,7.0,-999,0.00,,,-99.99,WeatherLink 5.4,2013-06-24 02:30:00,
2013-06-23 23:00:00,79.5,-99.9,-100.00,WSW,247,0.0,4.0,-999,0.00,,,-99.99,WeatherLink 5.4,2013-06-24 03:00:00,
2013-06-23 23:30:00,78.9,-99.9,-100.00,SW,225,1.0,7.0,-999,0.00,,,-99.99,WeatherLink 5.4,2013-06-24 03:30:00,